{"data":{"norad_id":66697,"epoch":"2026-09-20T10:52:57.023328Z","epoch_age_seconds":124871,"freshness":"FRESH","line1":"1 66697U 25276AH  26263.45343777  .00004264  00000+0  19008-3 0  9991","line2":"2 66697  97.4103 335.7943 0001938  34.3665 325.7696 15.21951633 44925","mean_motion":15.21951633,"eccentricity":0.0001938,"inclination_deg":97.4103,"raan_deg":335.7943,"arg_perigee_deg":34.3665,"mean_anomaly_deg":325.7696,"bstar":0.00019008,"rev_number":4492,"period_min":94.615358910029,"perigee_km":498.62139438576,"apogee_km":501.28734260019,"semimajor_km":6878.091368493,"source":"CELESTRAK","updated_at":"2026-09-21T09:00:16.128691Z"}}